Location: Unspecified
(0.0000°N, 0.0000°E)
Time: 15:56:49
(UTC+00:00)

AD-A Canister/Altair 2 - Pass Details

Date: 01 May 2025
Orbit: 593 x 2295 km, 78.6° (Epoch: 12 May)

Event Time Altitude Azimuth Distance (km) Brightness Sun altitude
Rises 19:33:19 0° 188° (S) 5,825 11.4 -23.2°
Reaches altitude 10° 19:36:52 10° 188° (S) 4,865 11.0 -24.0°
Maximum altitude 19:50:12 86° 275° (W) 2,189 9.1 -27.2°
Drops below altitude 10° 20:01:29 10° 5° (N) 4,176 10.9 -29.9°
Sets 20:04:17 0° 6° (N) 4,983 11.3 -30.5°
